Location: Unspecified
(0.0000°N, 0.0000°E)
Time: 04:12:54
(UTC+00:00)

RS-6 - Pass Details

Date: 26 September 2022
Orbit: 1636 x 1664 km, 83.0° (Epoch: 27 November)

Event Time Altitude Azimuth Distance (km) Brightness Sun altitude
Rises 04:18:14 0° 171° (S) 4,901 ? -23.3°
Reaches altitude 10° 04:21:24 10° 165° (SSE) 3,908 ? -22.5°
Maximum altitude 04:30:30 50° 92° (E) 2,013 ? -20.2°
Drops below altitude 10° 04:39:30 10° 20° (NNE) 3,877 ? -18.0°
Sets 04:42:35 0° 15° (NNE) 4,859 ? -17.2°
